| time (UTC) | temp C | wind direction | speed KPH | gust KPH | rain 1hr cm | rain 24hr cm | rain mn cm | humidity % | barometer mb |
| 20260506103450 | 10 | 341 | 4.8 | 14.5 | 0.00 | 0.00 | 0.00 | 87 | 1007.4 |
| 20260506102453 | 10 | 339 | 4.8 | 14.5 | 0.00 | 0.00 | 0.00 | 87 | 1007.0 |
| 20260506101501 | 10 | 14 | 3.2 | 9.7 | 0.00 | 0.00 | 0.00 | 87 | 1006.8 |
| 20260506100434 | 10 | 38 | 4.8 | 16.1 | 0.00 | 0.00 | 0.00 | 88 | 1006.6 |
| 20260506095442 | 10 | 57 | 4.8 | 16.1 | 0.00 | 0.00 | 0.00 | 87 | 1006.7 |
| 20260506094451 | 10 | 17 | 4.8 | 12.9 | 0.00 | 0.00 | 0.00 | 87 | 1006.6 |
| 20260506093449 | 10 | 5 | 4.8 | 12.9 | 0.00 | 0.00 | 0.00 | 87 | 1006.7 |
| 20260506092433 | 11 | 344 | 4.8 | 12.9 | 0.00 | 0.00 | 0.00 | 87 | 1006.4 |
| 20260506091455 | 11 | 32 | 4.8 | 12.9 | 0.00 | 0.00 | 0.00 | 87 | 1006.3 |
| 20260506090432 | 11 | 38 | 4.8 | 12.9 | 0.00 | 0.00 | 0.00 | 87 | 1006.0 |
| 20260506085423 | 11 | 30 | 6.4 | 14.5 | 0.00 | 0.00 | 0.00 | 87 | 1006.0 |
| 20260506084426 | 11 | 0 | 6.4 | 16.1 | 0.00 | 0.00 | 0.00 | 86 | 1005.9 |
| 20260506083443 | 11 | 19 | 4.8 | 16.1 | 0.00 | 0.00 | 0.00 | 86 | 1006.0 |
| 20260506082455 | 11 | 51 | 4.8 | 16.1 | 0.00 | 0.00 | 0.00 | 86 | 1006.0 |
| 20260506081504 | 11 | 344 | 6.4 | 16.1 | 0.00 | 0.00 | 0.00 | 86 | 1005.8 |
| 20260506080504 | 11 | 78 | 4.8 | 16.1 | 0.00 | 0.00 | 0.00 | 86 | 1005.8 |
| 20260506072247 | 12 | 31 | 4.8 | 16.1 | 0.00 | 0.00 | 0.00 | 85 | 1005.6 |
| 20260506071219 | 12 | 0 | 4.8 | 16.1 | 0.00 | 0.00 | 0.00 | 85 | 1005.7 |
| 20260506070155 | 13 | 338 | 3.2 | 12.9 | 0.00 | 0.00 | 0.00 | 84 | 1005.3 |
| 20260506061024 | 14 | 76 | 4.8 | 12.9 | 0.00 | 0.00 | 0.00 | 81 | 1005.2 |
| 20260506044725 | 16 | 55 | 4.8 | 12.9 | 0.00 | 0.00 | 0.00 | 75 | 1005.2 |
| 20260506043720 | 16 | 347 | 6.4 | 14.5 | 0.00 | 0.00 | 0.00 | 75 | 1005.1 |
| 20260506042712 | 16 | 46 | 3.2 | 14.5 | 0.00 | 0.00 | 0.00 | 75 | 1005.0 |
| 20260506041700 | 16 | 40 | 4.8 | 11.3 | 0.00 | 0.00 | 0.00 | 75 | 1004.8 |
| 20260506040659 | 17 | 43 | 4.8 | 17.7 | 0.00 | 0.00 | 0.00 | 74 | 1004.8 |
| 20260506034529 | 17 | 19 | 6.4 | 17.7 | 0.00 | 0.00 | 0.00 | 72 | 1004.8 |
| 20260506033519 | 17 | 26 | 8.0 | 17.7 | 0.00 | 0.00 | 0.00 | 72 | 1004.6 |
| 20260506032510 | 17 | 46 | 6.4 | 17.7 | 0.00 | 0.00 | 0.00 | 73 | 1004.6 |
| 20260506031437 | 18 | 20 | 4.8 | 16.1 | 0.00 | 0.00 | 0.00 | 73 | 1004.5 |
| 20260506025317 | 19 | 103 | 3.2 | 9.7 | 0.00 | 0.00 | 0.00 | 73 | 1004.0 |
| 20260506024341 | 19 | 50 | 3.2 | 12.9 | 0.00 | 0.00 | 0.00 | 72 | 1003.9 |
| 20260506023405 | 20 | 61 | 3.2 | 12.9 | 0.00 | 0.00 | 0.00 | 72 | 1003.3 |
| 20260506022359 | 20 | 40 | 4.8 | 9.7 | 0.00 | 0.00 | 0.00 | 72 | 1003.3 |
| 20260506021349 | 20 | 22 | 3.2 | 16.1 | 0.00 | 0.00 | 0.00 | 71 | 1003.3 |
| 20260506020320 | 21 | 53 | 4.8 | 16.1 | 0.00 | 0.00 | 0.00 | 69 | 1003.0 |
| 20260506014149 | 23 | 5 | 1.6 | 8.0 | 0.00 | 0.00 | 0.00 | 68 | 1002.0 |
| 20260506013154 | 23 | 246 | 0.0 | 0.0 | 0.00 | 0.00 | 0.00 | 67 | 1001.4 |
| 20260506011044 | 23 | 254 | 0.0 | 0.0 | 0.00 | 0.00 | 0.00 | 65 | 1001.0 |
| 20260506010023 | 24 | 225 | 0.0 | 4.8 | 0.00 | 0.00 | 0.00 | 63 | 1000.7 |
| 20260506005034 | 24 | 225 | 0.0 | 3.2 | 0.00 | 0.00 | 0.00 | 62 | 1000.8 |
| 20260506004043 | 25 | 225 | 0.0 | 1.6 | 0.00 | 0.00 | 0.00 | 60 | 1000.8 |
| 20260506003029 | 25 | 225 | 0.0 | 4.8 | 0.00 | 0.00 | 0.00 | 61 | 1000.8 |
| 20260506002027 | 26 | 225 | 0.0 | 1.6 | 0.00 | 0.00 | 0.00 | 60 | 1000.9 |
| 20260506001013 | 26 | 225 | 0.0 | 1.6 | 0.00 | 0.00 | 0.00 | 60 | 1000.9 |
| 20260505234906 | 27 | 225 | 1.6 | 9.7 | 0.00 | 0.00 | 0.00 | 53 | 1001.0 |
| 20260505231531 | 28 | 223 | 3.2 | 9.7 | 0.00 | 0.00 | 0.00 | 52 | 1001.1 |
| 20260505230457 | 28 | 229 | 4.8 | 9.7 | 0.00 | 0.00 | 0.00 | 53 | 1001.0 |
| 20260505225437 | 28 | 213 | 3.2 | 9.7 | 0.00 | 0.00 | 0.00 | 55 | 1001.0 |
| 20260505223335 | 28 | 230 | 4.8 | 11.3 | 0.00 | 0.00 | 0.00 | 53 | 1001.1 |
| 20260505222310 | 28 | 233 | 4.8 | 12.9 | 0.00 | 0.00 | 0.00 | 52 | 1001.1 |
| 20260505221243 | 28 | 214 | 3.2 | 12.9 | 0.00 | 0.00 | 0.00 | 52 | 1001.2 |
| 20260505220231 | 28 | 200 | 3.2 | 11.3 | 0.00 | 0.00 | 0.00 | 56 | 1001.1 |
| 20260505215209 | 28 | 227 | 3.2 | 11.3 | 0.00 | 0.00 | 0.00 | 55 | 1001.3 |
| 20260505214205 | 29 | 182 | 3.2 | 11.3 | 0.00 | 0.00 | 0.00 | 55 | 1001.2 |
| 20260505213148 | 28 | 211 | 3.2 | 14.5 | 0.00 | 0.00 | 0.00 | 55 | 1001.3 |
| 20260505212141 | 28 | 232 | 6.4 | 14.5 | 0.00 | 0.00 | 0.00 | 56 | 1001.3 |
| 20260505203713 | 28 | 234 | 3.2 | 11.3 | 0.00 | 0.00 | 0.00 | 59 | 1001.9 |
| 20260505202737 | 28 | 217 | 4.8 | 11.3 | 0.00 | 0.00 | 0.00 | 57 | 1001.9 |
| 20260505201707 | 28 | 246 | 1.6 | 9.7 | 0.00 | 0.00 | 0.00 | 61 | 1002.1 |
| 20260505200659 | 28 | 238 | 3.2 | 12.9 | 0.00 | 0.00 | 0.00 | 59 | 1002.3 |
| 20260505195657 | 28 | 229 | 3.2 | 12.9 | 0.00 | 0.00 | 0.00 | 60 | 1002.3 |
| 20260505193609 | 27 | 222 | 3.2 | 11.3 | 0.00 | 0.00 | 0.00 | 60 | 1002.5 |
| 20260505191349 | 27 | 210 | 4.8 | 14.5 | 0.00 | 0.00 | 0.00 | 64 | 1003.0 |
| 20260505190405 | 27 | 286 | 6.4 | 12.9 | 0.00 | 0.00 | 0.00 | 66 | 1003.0 |
| 20260505185417 | 27 | 271 | 4.8 | 12.9 | 0.00 | 0.00 | 0.00 | 67 | 1003.0 |
| 20260505184403 | 26 | 273 | 8.0 | 12.9 | 0.00 | 0.00 | 0.00 | 68 | 1003.1 |
| 20260505182251 | 26 | 232 | 4.8 | 14.5 | 0.00 | 0.00 | 0.00 | 70 | 1003.3 |
| 20260505180204 | 25 | 173 | 8.0 | 16.1 | 0.00 | 0.00 | 0.00 | 72 | 1003.5 |
| 20260505175153 | 25 | 256 | 6.4 | 17.7 | 0.00 | 0.00 | 0.00 | 72 | 1003.6 |
| 20260505172948 | 24 | 263 | 8.0 | 14.5 | 0.00 | 0.00 | 0.00 | 76 | 1003.7 |
| 20260505171949 | 24 | 269 | 6.4 | 14.5 | 0.00 | 0.00 | 0.00 | 75 | 1003.8 |
| 20260505170958 | 24 | 230 | 6.4 | 20.9 | 0.00 | 0.00 | 0.00 | 76 | 1003.9 |
| 20260505165927 | 23 | 212 | 8.0 | 20.9 | 0.00 | 0.00 | 0.00 | 76 | 1003.9 |
| 20260505164912 | 23 | 225 | 8.0 | 20.9 | 0.00 | 0.00 | 0.00 | 77 | 1003.9 |
| 20260505162731 | 23 | 209 | 8.0 | 17.7 | 0.00 | 0.00 | 0.00 | 78 | 1003.6 |
| 20260505161750 | 23 | 181 | 8.0 | 19.3 | 0.00 | 0.00 | 0.00 | 81 | 1003.6 |
| 20260505160752 | 22 | 221 | 8.0 | 19.3 | 0.00 | 0.00 | 0.00 | 81 | 1003.7 |
| 20260505152745 | 21 | 214 | 8.0 | 17.7 | 0.00 | 0.00 | 0.00 | 84 | 1003.7 |
| 20260505150658 | 20 | 230 | 8.0 | 16.1 | 0.00 | 0.00 | 0.00 | 85 | 1003.6 |
| 20260505140422 | 18 | 235 | 6.4 | 14.5 | 0.00 | 0.00 | 0.00 | 89 | 1003.7 |
| 20260505124313 | 16 | 223 | 4.8 | 11.3 | 0.00 | 0.00 | 0.00 | 94 | 1003.1 |
| 20260505123338 | 15 | 239 | 4.8 | 11.3 | 0.00 | 0.00 | 0.00 | 94 | 1003.0 |
| 20260505122305 | 15 | 236 | 3.2 | 9.7 | 0.00 | 0.00 | 0.00 | 94 | 1002.9 |
| 20260505120126 | 15 | 229 | 3.2 | 9.7 | 0.00 | 0.00 | 0.00 | 94 | 1002.7 |
| 20260505114011 | 15 | 227 | 3.2 | 8.0 | 0.00 | 0.00 | 0.00 | 94 | 1002.5 |
| 20260505113000 | 15 | 228 | 3.2 | 8.0 | 0.00 | 0.00 | 0.00 | 93 | 1002.3 |
| 20260505111945 | 15 | 224 | 3.2 | 9.7 | 0.00 | 0.00 | 0.00 | 93 | 1002.4 |
| 20260505110951 | 15 | 219 | 3.2 | 9.7 | 0.00 | 0.00 | 0.00 | 93 | 1002.5 |